Weather History for K4A9 - January, 2013

Change the Weather History Date:

Wednesday, January 16, 2013

  Actual Average (KRMG) Record (KRMG)
Temperature  
Mean Temperature 45 °F 41 °F  
Max Temperature 48 °F 52 °F 63 °F (1999)
Min Temperature 42 °F 30 °F 12 °F (2009)
Degree Days  
Heating Degree Days 20 24  
Month to date heating degree days 384  
Since 1 July heating degree days 1684  
Moisture  
Dew Point 42 °F    
Average Humidity 91    
Maximum Humidity 100    
Minimum Humidity 81    
Precipitation  
Precipitation 0.20 in 0.17 in 0.35 in (2013)
Month to date precipitation 2.08  
Year to date precipitation 2.08  
Sea Level Pressure  
Sea Level Pressure 30.00 in    
Wind  
Wind Speed 2 mph (North)    
Max Wind Speed 9 mph    
Max Gust Speed -    
Visibility 9 miles    
Events Rain    
T = Trace of Precipitation, MM = Missing Value Source: NWS Daily Summary

Daily Weather History Graph

Daily Weather History Graph

Search for Another Location

Airport or City:

Trip Planner

Search our weather history database for the weather conditions in past years. The results will help you decide how hot, cold, wet, or windy it might be!

Date:

Astronomy

Jan. 16, 2013 Rise Set
Actual Time 6:48 AM CST 4:57 PM CST
Civil Twilight 6:21 AM CST 5:24 PM CST
Nautical Twilight 5:50 AM CST 5:55 PM CST
Astronomical Twilight 5:20 AM CST 6:25 PM CST
Moon 9:40 AM CST (1/16) 10:30 PM CST (1/16)
Length of Visible Light 11h 02m
Length of Day
10h 08m
Waxing Crescent, 28% of the Moon is Illuminated
Jan 16
Waxing Crescent
Jan 18
First Quarter
Jan 26
Full
Feb 3
Last Quarter
Feb 10
New

Hourly Weather History & Observations

Time (CST) Temp. Windchill Dew Point Humidity Pressure Visibility Wind Dir Wind Speed Gust Speed Precip Events Conditions
12:15 AM 46.4 °F - 44.6 °F 93% 29.93 in 5.0 mi Calm Calm - N/A   Overcast
12:35 AM 46.4 °F - 44.6 °F 93% 29.92 in 4.0 mi Calm Calm - N/A   Overcast
12:55 AM 46.4 °F - 44.6 °F 93% 29.92 in 10.0 mi Calm Calm - N/A   Overcast
1:15 AM 46.4 °F - 44.6 °F 93% 29.92 in 10.0 mi Calm Calm - N/A Rain Light Rain
1:35 AM 46.4 °F - 44.6 °F 93% 29.93 in 5.0 mi Calm Calm - 0.02 in Rain Rain
1:55 AM 46.4 °F - 46.4 °F 100% 29.95 in 4.0 mi Calm Calm - 0.04 in   Heavy Drizzle
2:15 AM 48.2 °F - 46.4 °F 93% 29.96 in 4.0 mi Calm Calm - 0.01 in   Heavy Drizzle
2:35 AM 48.2 °F - 46.4 °F 93% 29.93 in 7.0 mi Calm Calm - 0.02 in   Light Drizzle
2:55 AM 48.2 °F - 46.4 °F 93% 29.93 in 7.0 mi Calm Calm - 0.02 in Rain Light Rain
3:15 AM 48.2 °F - 46.4 °F 93% 29.94 in 7.0 mi Calm Calm - N/A   Overcast
3:35 AM 48.2 °F - 46.4 °F 93% 29.93 in 7.0 mi Calm Calm - N/A   Overcast
3:55 AM 46.4 °F 44.3 °F 46.4 °F 100% 29.95 in 10.0 mi West 4.6 mph - N/A   Overcast
4:35 AM 46.4 °F 45.2 °F 44.6 °F 93% 29.96 in 10.0 mi WNW 3.5 mph - N/A   Overcast
4:55 AM 44.6 °F 43.1 °F 42.8 °F 93% 29.97 in 7.0 mi WNW 3.5 mph - N/A   Overcast
5:35 AM 44.6 °F 43.1 °F 42.8 °F 93% 29.98 in 10.0 mi NNW 3.5 mph - N/A   Overcast
6:35 AM 44.6 °F - 42.8 °F 93% 29.98 in 10.0 mi Calm Calm - N/A   Overcast
6:55 AM 44.6 °F - 42.8 °F 93% 29.99 in 10.0 mi Calm Calm - N/A   Overcast
7:15 AM 44.6 °F - 42.8 °F 93% 29.98 in 10.0 mi Calm Calm - N/A   Overcast
7:35 AM 44.6 °F - 42.8 °F 93% 29.98 in 10.0 mi Calm Calm - N/A   Overcast
7:55 AM 44.6 °F - 42.8 °F 93% 29.97 in 7.0 mi Calm Calm - N/A   Mostly Cloudy
8:15 AM 46.4 °F 42.9 °F 44.6 °F 93% 30.01 in 7.0 mi SW 6.9 mph - N/A   Mostly Cloudy
8:35 AM 44.6 °F 41.4 °F 44.6 °F 100% 30.04 in 7.0 mi WSW 5.8 mph - N/A   Overcast
8:55 AM 44.6 °F 42.2 °F 44.6 °F 100% 30.06 in 7.0 mi WNW 4.6 mph - N/A Rain Light Rain
9:15 AM 44.6 °F 43.1 °F 42.8 °F 93% 30.05 in 10.0 mi WNW 3.5 mph - N/A   Light Drizzle
9:35 AM 44.6 °F 41.4 °F 42.8 °F 93% 30.04 in 10.0 mi NW 5.8 mph - N/A   Overcast
9:55 AM 44.6 °F 42.2 °F 42.8 °F 93% 30.05 in 10.0 mi WNW 4.6 mph - N/A Rain Light Rain
10:15 AM 42.8 °F 40.1 °F 42.8 °F 100% 30.05 in 7.0 mi NNW 4.6 mph - N/A Rain Light Rain
10:35 AM 42.8 °F 41.1 °F 41.0 °F 93% 30.05 in 10.0 mi NNW 3.5 mph - 0.01 in Rain Light Rain
10:55 AM 42.8 °F 40.1 °F 41.0 °F 93% 30.05 in 10.0 mi North 4.6 mph - 0.01 in Rain Light Rain
11:15 AM 44.6 °F - 42.8 °F 93% 30.05 in 10.0 mi Calm Calm - N/A Rain Light Rain
11:35 AM 44.6 °F 42.2 °F 42.8 °F 93% 30.03 in 7.0 mi ENE 4.6 mph - 0.02 in Rain Light Rain
11:55 AM 44.6 °F - 42.8 °F 93% 30.02 in 10.0 mi Calm Calm - 0.02 in   Overcast
12:15 PM 44.6 °F - 42.8 °F 93% 30.01 in 5.0 mi Calm Calm - 0.01 in Rain Light Rain
12:35 PM 44.6 °F - 42.8 °F 93% 29.99 in 7.0 mi Calm Calm - 0.02 in   Light Drizzle
12:55 PM 44.6 °F - 42.8 °F 93% 29.98 in 10.0 mi Calm Calm - 0.02 in   Overcast
1:15 PM 46.4 °F - 44.6 °F 93% 29.97 in 10.0 mi Calm Calm - N/A   Overcast
1:35 PM 46.4 °F - 44.6 °F 93% 29.97 in 10.0 mi Calm Calm - 0.01 in   Light Drizzle
2:15 PM 46.4 °F 44.3 °F 44.6 °F 93% 29.99 in 10.0 mi NW 4.6 mph - N/A   Overcast
2:35 PM 46.4 °F 41.9 °F 44.6 °F 93% 29.99 in 10.0 mi NW 9.2 mph - N/A   Overcast
2:55 PM 44.6 °F 43.1 °F 41.0 °F 87% 30.02 in 7.0 mi NW 3.5 mph - N/A   Overcast
3:15 PM 44.6 °F 43.1 °F 41.0 °F 87% 30.01 in 4.0 mi North 3.5 mph - 0.01 in Rain Light Rain
3:35 PM 44.6 °F - 41.0 °F 87% 30.01 in 7.0 mi Calm Calm - 0.03 in Rain Light Rain
3:55 PM 42.8 °F 40.1 °F 41.0 °F 93% 30.02 in 10.0 mi North 4.6 mph - 0.03 in   Drizzle
4:35 PM 42.8 °F 37.5 °F 39.2 °F 87% 30.02 in 10.0 mi North 9.2 mph - 0.02 in   Light Drizzle
4:55 PM 42.8 °F - 37.4 °F 81% 30.02 in 10.0 mi Calm Calm - 0.02 in   Overcast
5:15 PM 42.8 °F 41.1 °F 37.4 °F 81% 30.02 in 10.0 mi North 3.5 mph - N/A   Overcast
5:35 PM 42.8 °F - 37.4 °F 81% 30.04 in 10.0 mi Calm Calm - N/A   Overcast
5:55 PM 42.8 °F - 37.4 °F 81% 30.04 in 10.0 mi Calm Calm - N/A   Overcast
6:15 PM 42.8 °F 41.1 °F 39.2 °F 87% 30.04 in 10.0 mi NE 3.5 mph - N/A   Overcast
6:35 PM 42.8 °F 40.1 °F 39.2 °F 87% 30.02 in 10.0 mi NE 4.6 mph - N/A   Overcast
6:55 PM 42.8 °F 41.1 °F 39.2 °F 87% 30.03 in 10.0 mi NNE 3.5 mph - N/A   Overcast
7:15 PM 42.8 °F 39.3 °F 39.2 °F 87% 30.02 in 10.0 mi NE 5.8 mph - N/A   Overcast
7:35 PM 42.8 °F 41.1 °F 39.2 °F 87% 30.02 in 10.0 mi ENE 3.5 mph - N/A   Overcast
7:55 PM 42.8 °F 41.1 °F 39.2 °F 87% 30.02 in 10.0 mi NNE 3.5 mph - N/A   Overcast
8:15 PM 42.8 °F 39.3 °F 39.2 °F 87% 30.02 in 10.0 mi NE 5.8 mph - N/A   Overcast
8:35 PM 42.8 °F 39.3 °F 39.2 °F 87% 30.02 in 10.0 mi NE 5.8 mph - N/A   Drizzle
8:55 PM 42.8 °F - 39.2 °F 87% 30.02 in 10.0 mi Calm Calm - N/A   Overcast
9:15 PM 42.8 °F - 39.2 °F 87% 30.00 in 10.0 mi Calm Calm - N/A   Overcast
9:35 PM 42.8 °F 40.1 °F 39.2 °F 87% 30.00 in 10.0 mi NNE 4.6 mph - N/A   Light Drizzle
9:55 PM 42.8 °F - 39.2 °F 87% 30.03 in 10.0 mi Calm Calm - N/A Rain Light Rain
10:15 PM 42.8 °F - 39.2 °F 87% 30.04 in 10.0 mi Calm Calm - N/A Rain Rain
10:35 PM 42.8 °F - 41.0 °F 93% 30.01 in 7.0 mi Calm Calm - 0.01 in Rain Light Rain
10:55 PM 42.8 °F - 41.0 °F 93% 30.00 in 10.0 mi Calm Calm - 0.02 in Rain Rain
11:15 PM 42.8 °F 40.1 °F 41.0 °F 93% 30.00 in 10.0 mi NNE 4.6 mph - N/A Rain Rain
11:35 PM 42.8 °F 40.1 °F 41.0 °F 93% 30.00 in 10.0 mi NNE 4.6 mph - 0.01 in   Drizzle
11:55 PM 42.8 °F 41.1 °F 41.0 °F 93% 30.00 in 10.0 mi ENE 3.5 mph - 0.01 in   Drizzle